EW2832 Weather Reports


time (UTC)temp
C
wind
direction
speed
KPH
gust
KPH
rain 1hr
cm
rain 24hr
cm
rain mn
cm
humidity
%
barometer
mb
20260903060014 23 0 0.0 0.0 0.00 0.00 0.00 61 1014.3
20260903055514 24 195 1.6 4.8 0.00 0.00 0.00 61 1014.2
20260903055013 24 240 1.6 4.8 0.00 0.00 0.00 61 1014.3
20260903054513 24 25 3.2 4.8 0.00 0.00 0.00 61 1014.4
20260903054013 23 23 3.2 6.4 0.00 0.00 0.00 60 1014.2
20260903053514 23 355 4.8 6.4 0.00 0.00 0.00 60 1014.2
20260903053014 23 21 4.8 6.4 0.00 0.00 0.00 61 1014.3
20260903052013 23 8 4.8 6.4 0.00 0.00 0.00 61 1014.3
20260903051513 24 37 6.4 12.9 0.00 0.00 0.00 60 1014.6
20260903051014 24 45 11.3 12.9 0.00 0.00 0.00 60 1014.8
20260903050514 24 45 12.9 12.9 0.00 0.00 0.00 61 1014.8
20260903050015 24 34 9.7 12.9 0.00 0.00 0.00 61 1015.1
20260903045513 23 22 8.0 12.9 0.00 0.00 0.00 61 1014.8
20260903045013 24 4 11.3 17.7 0.00 0.00 0.00 61 1015.2
20260903043514 23 330 12.9 22.5 0.00 0.00 0.00 61 1015.2
20260903042513 23 1 8.0 17.7 0.00 0.00 0.00 61 1015.2
20260903042013 24 347 11.3 17.7 0.00 0.00 0.00 60 1015.0
20260903041513 24 348 14.5 17.7 0.00 0.00 0.00 59 1015.0
20260903040513 25 358 22.5 33.8 0.00 0.00 0.00 55 1015.5
20260903040014 26 343 22.5 40.2 0.00 0.00 0.00 52 1015.6
20260903035513 26 286 16.1 40.2 0.00 0.00 0.00 58 1014.8
20260903035013 26 224 12.9 16.1 0.00 0.00 0.00 72 1013.5
20260903034513 26 218 14.5 19.3 0.00 0.00 0.00 73 1013.4
20260903034013 26 216 14.5 19.3 0.00 0.00 0.00 72 1013.4
20260903033513 26 230 14.5 17.7 0.00 0.00 0.00 72 1013.3
20260903033013 26 225 16.1 17.7 0.00 0.00 0.00 72 1013.6
20260903031513 26 243 14.5 17.7 0.00 0.00 0.00 73 1013.1
20260903031013 26 245 14.5 17.7 0.00 0.00 0.00 73 1013.1
20260903030514 26 252 12.9 17.7 0.00 0.00 0.00 73 1012.9
20260903025513 26 232 12.9 17.7 0.00 0.00 0.00 72 1012.3
20260903024513 26 205 16.1 17.7 0.00 0.00 0.00 71 1012.3
20260903024013 26 194 16.1 17.7 0.00 0.00 0.00 70 1012.6
20260903023513 26 209 14.5 17.7 0.00 0.00 0.00 70 1012.8
20260903023013 26 248 14.5 17.7 0.00 0.00 0.00 69 1013.0
20260903022514 26 268 14.5 17.7 0.00 0.00 0.00 69 1013.2
20260903022013 26 254 14.5 17.7 0.00 0.00 0.00 69 1013.3
20260903021513 26 249 14.5 17.7 0.00 0.00 0.00 69 1013.4
20260903021012 26 248 12.9 17.7 0.00 0.00 0.00 68 1013.4
20260903020514 26 230 12.9 14.5 0.00 0.00 0.00 68 1013.3
20260903020013 26 227 11.3 14.5 0.00 0.00 0.00 68 1013.4
20260903015013 26 251 11.3 14.5 0.00 0.00 0.00 68 1013.4
20260903014513 27 220 12.9 16.1 0.00 0.00 0.00 68 1013.5
20260903014013 27 212 14.5 17.7 0.00 0.00 0.00 67 1013.4
20260903012513 27 235 9.7 14.5 0.00 0.00 0.00 66 1013.4
20260903011013 27 245 11.3 16.1 0.00 0.00 0.00 66 1013.3
20260903010512 27 262 9.7 14.5 0.00 0.00 0.00 66 1013.3
20260903010013 27 262 9.7 14.5 0.00 0.00 0.00 66 1013.1
20260903005513 27 245 11.3 12.9 0.00 0.00 0.00 66 1013.0
20260903005014 27 253 11.3 12.9 0.00 0.00 0.00 66 1013.0
20260903004513 27 247 12.9 17.7 0.00 0.00 0.00 66 1013.0
20260903004013 27 239 14.5 17.7 0.00 0.00 0.00 65 1012.9
20260903003513 27 228 14.5 17.7 0.00 0.00 0.00 66 1012.8
20260903003014 27 211 14.5 17.7 0.00 0.00 0.00 66 1012.9
20260903002513 27 214 14.5 17.7 0.00 0.00 0.00 66 1012.9
20260903001513 27 201 14.5 16.1 0.00 0.00 0.00 65 1013.1
20260903001014 27 208 16.1 19.3 0.00 0.00 0.00 64 1013.2
20260903000513 27 228 17.7 22.5 0.00 0.00 0.00 63 1013.3
20260903000012 27 261 19.3 22.5 0.00 0.00 0.00 62 1013.3
20260902235513 27 247 17.7 22.5 0.00 0.00 0.00 63 1013.3
20260902235013 27 220 16.1 19.3 0.00 0.00 0.00 64 1013.3
20260902234514 27 222 16.1 19.3 0.00 0.00 0.00 64 1013.4
20260902234013 27 228 16.1 17.7 0.00 0.00 0.00 63 1013.3
20260902233513 27 222 14.5 17.7 0.00 0.00 0.00 63 1013.3
20260902233012 27 224 12.9 14.5 0.00 0.00 0.00 63 1013.1
20260902232513 27 237 12.9 14.5 0.00 0.00 0.00 63 1013.1
20260902232013 27 239 14.5 17.7 0.00 0.00 0.00 62 1013.3
20260902231012 28 220 12.9 17.7 0.00 0.00 0.00 62 1013.1
20260902230513 28 205 12.9 14.5 0.00 0.00 0.00 62 1013.1
20260902230013 28 216 12.9 14.5 0.00 0.00 0.00 63 1013.2
20260902225512 28 219 12.9 16.1 0.00 0.00 0.00 63 1013.0
20260902225012 28 238 14.5 16.1 0.00 0.00 0.00 63 1012.9
20260902224014 28 232 11.3 12.9 0.00 0.00 0.00 64 1012.9
20260902223513 28 228 11.3 12.9 0.00 0.00 0.00 64 1013.1
20260902223012 28 213 9.7 12.9 0.00 0.00 0.00 65 1013.0
20260902222013 28 208 12.9 17.7 0.00 0.00 0.00 65 1013.0
20260902221513 28 216 12.9 17.7 0.00 0.00 0.00 64 1013.2
20260902221013 28 220 11.3 12.9 0.00 0.00 0.00 64 1013.1
20260902220512 28 233 9.7 12.9 0.00 0.00 0.00 64 1013.2
20260902220012 28 232 11.3 12.9 0.00 0.00 0.00 64 1013.1
20260902215014 28 224 17.7 17.7 0.00 0.00 0.00 64 1013.3
20260902214013 28 220 17.7 19.3 0.00 0.00 0.00 63 1013.1
20260902213512 28 189 19.3 20.9 0.00 0.00 0.00 63 1013.3
20260902213012 28 190 19.3 22.5 0.00 0.00 0.00 62 1013.2
20260902212512 30 187 20.9 22.5 0.00 0.00 0.00 62 1013.4
20260902211513 28 216 19.3 20.9 0.00 0.00 0.00 62 1013.2
20260902211013 29 193 17.7 20.9 0.00 0.00 0.00 62 1013.4
20260902210512 29 186 17.7 17.7 0.00 0.00 0.00 62 1013.3
20260902210012 29 191 17.7 17.7 0.00 0.00 0.00 62 1013.4
20260902205513 29 201 14.5 17.7 0.00 0.00 0.00 63 1013.6
20260902203512 29 214 12.9 16.1 0.00 0.00 0.00 63 1013.7
20260902203013 29 211 14.5 19.3 0.00 0.00 0.00 63 1013.7
20260902202513 29 206 16.1 19.3 0.00 0.00 0.00 63 1013.7
20260902202012 29 200 14.5 17.7 0.00 0.00 0.00 62 1013.8
20260902201012 29 225 6.4 11.3 0.00 0.00 0.00 63 1013.9
20260902200512 29 221 6.4 12.9 0.00 0.00 0.00 64 1014.1
20260902200013 29 208 9.7 12.9 0.00 0.00 0.00 64 1014.1
20260902195512 29 219 14.5 19.3 0.00 0.00 0.00 64 1014.4
20260902194512 28 211 12.9 17.7 0.00 0.00 0.00 64 1014.4
20260902193512 28 219 11.3 12.9 0.00 0.00 0.00 65 1014.5
20260902192012 28 221 12.9 16.1 0.00 0.00 0.00 66 1014.7
20260902191512 28 221 16.1 17.7 0.00 0.00 0.00 66 1014.6
20260902191012 28 225 16.1 17.7 0.00 0.00 0.00 66 1014.8
20260902190512 28 218 16.1 17.7 0.00 0.00 0.00 67 1014.7
20260902190012 28 202 16.1 17.7 0.00 0.00 0.00 67 1014.9
20260902185513 28 195 17.7 17.7 0.00 0.00 0.00 67 1014.7
20260902185012 28 204 16.1 17.7 0.00 0.00 0.00 67 1014.8
20260902184012 28 218 9.7 12.9 0.00 0.00 0.00 68 1014.7
20260902183013 28 209 8.0 9.7 0.00 0.00 0.00 68 1014.9
20260902182512 28 217 8.0 9.7 0.00 0.00 0.00 70 1015.1
20260902182012 28 223 8.0 9.7 0.00 0.00 0.00 69 1015.2
20260902181512 29 228 8.0 9.7 0.00 0.00 0.00 70 1015.1
20260902181012 29 244 9.7 9.7 0.00 0.00 0.00 70 1015.3
20260902180512 27 217 11.3 12.9 0.00 0.00 0.00 71 1015.3
20260902180012 27 193 12.9 14.5 0.00 0.00 0.00 71 1015.3
20260902175512 28 197 14.5 14.5 0.00 0.00 0.00 72 1015.4
20260902175013 28 203 14.5 16.1 0.00 0.00 0.00 72 1015.3
20260902174512 28 199 16.1 17.7 0.00 0.00 0.00 72 1015.5
20260902174012 28 189 16.1 17.7 0.00 0.00 0.00 72 1015.5
20260902173513 27 194 16.1 17.7 0.00 0.00 0.00 73 1015.6
20260902172512 27 187 17.7 17.7 0.00 0.00 0.00 74 1015.7
20260902172012 27 182 17.7 17.7 0.00 0.00 0.00 74 1015.7
20260902171012 27 208 12.9 17.7 0.00 0.00 0.00 76 1015.8
20260902170512 27 225 11.3 11.3 0.00 0.00 0.00 78 1015.8
20260902170012 27 225 9.7 11.3 0.00 0.00 0.00 78 1016.0
20260902165512 27 232 9.7 12.9 0.00 0.00 0.00 78 1016.0
20260902165012 26 225 11.3 14.5 0.00 0.00 0.00 78 1016.0
20260902164512 26 220 12.9 16.1 0.00 0.00 0.00 78 1016.1
20260902164012 27 218 12.9 16.1 0.00 0.00 0.00 78 1016.2
20260902163512 26 217 12.9 12.9 0.00 0.00 0.00 79 1016.2
20260902163012 27 221 11.3 12.9 0.00 0.00 0.00 78 1016.2
20260902162512 27 222 9.7 12.9 0.00 0.00 0.00 79 1016.3
20260902162012 26 223 9.7 9.7 0.00 0.00 0.00 80 1016.4
20260902161511 26 217 8.0 11.3 0.00 0.00 0.00 80 1016.3
20260902161012 26 220 8.0 11.3 0.00 0.00 0.00 81 1016.4
20260902160513 26 220 8.0 11.3 0.00 0.00 0.00 81 1016.4
20260902160012 26 218 11.3 12.9 0.00 0.00 0.00 82 1016.3
20260902155512 26 217 11.3 12.9 0.00 0.00 0.00 82 1016.4
20260902155011 26 208 12.9 12.9 0.00 0.00 0.00 82 1016.3
20260902154512 26 210 12.9 14.5 0.00 0.00 0.00 83 1016.2
20260902154012 26 218 12.9 14.5 0.00 0.00 0.00 83 1016.3
20260902153012 26 228 12.9 14.5 0.00 0.00 0.00 84 1016.3
20260902152512 26 225 12.9 14.5 0.00 0.00 0.00 84 1016.4
20260902152012 25 225 12.9 16.1 0.00 0.00 0.00 85 1016.2
20260902151512 25 221 14.5 16.1 0.00 0.00 0.00 85 1016.2
20260902151012 25 221 14.5 16.1 0.00 0.00 0.00 85 1016.1
20260902150511 25 225 14.5 14.5 0.00 0.00 0.00 85 1016.0
20260902150012 25 223 11.3 14.5 0.00 0.00 0.00 86 1016.1
20260902145512 25 223 11.3 12.9 0.00 0.00 0.00 86 1016.1
20260902145012 25 219 11.3 12.9 0.00 0.00 0.00 86 1015.9
20260902144511 25 216 12.9 12.9 0.00 0.00 0.00 86 1016.1
20260902144011 25 221 12.9 16.1 0.00 0.00 0.00 87 1016.1
20260902143512 25 215 14.5 16.1 0.00 0.00 0.00 87 1015.9
20260902143012 25 212 16.1 17.7 0.00 0.00 0.00 87 1016.1
20260902142512 25 221 16.1 17.7 0.00 0.00 0.00 87 1016.1
20260902141512 25 216 14.5 17.7 0.00 0.00 0.00 88 1016.2
20260902141012 25 202 16.1 17.7 0.00 0.00 0.00 88 1016.0
20260902140512 25 192 16.1 17.7 0.00 0.00 0.00 88 1016.0
20260902140012 25 210 14.5 17.7 0.00 0.00 0.00 88 1016.0
20260902135511 25 216 14.5 16.1 0.00 0.00 0.00 88 1016.1
20260902135012 25 215 14.5 14.5 0.00 0.00 0.00 88 1016.0
20260902134513 25 213 14.5 17.7 0.00 0.00 0.00 88 1016.0
20260902134011 25 217 16.1 17.7 0.00 0.00 0.00 88 1016.0
20260902133511 25 218 16.1 17.7 0.00 0.00 0.00 88 1016.0
20260902133011 25 216 16.1 17.7 0.00 0.00 0.00 88 1016.0
20260902132512 25 223 16.1 17.7 0.00 0.00 0.00 88 1016.0
20260902132011 25 224 16.1 17.7 0.00 0.00 0.00 88 1016.0
20260902131512 25 234 14.5 17.7 0.00 0.00 0.00 88 1015.9
20260902130512 24 248 12.9 14.5 0.00 0.00 0.00 88 1015.9
20260902130011 24 218 12.9 16.1 0.00 0.00 0.00 88 1016.0
20260902125511 24 214 11.3 16.1 0.00 0.00 0.00 88 1015.8
20260902125012 24 222 9.7 12.9 0.00 0.00 0.00 88 1015.9
20260902124512 24 225 11.3 12.9 0.00 0.00 0.00 88 1015.9
20260902124011 24 224 11.3 12.9 0.00 0.00 0.00 88 1015.7
20260902123512 24 224 11.3 12.9 0.00 0.00 0.00 88 1015.6
20260902122511 24 214 9.7 11.3 0.00 0.00 0.00 87 1015.6
20260902122011 24 214 9.7 12.9 0.00 0.00 0.00 87 1015.5
20260902121512 24 214 11.3 12.9 0.00 0.00 0.00 87 1015.7
20260902121011 24 221 11.3 12.9 0.00 0.00 0.00 87 1015.7
20260902120512 24 225 12.9 14.5 0.00 0.00 0.00 86 1015.6
20260902120011 24 218 11.3 14.5 0.00 0.00 0.00 86 1015.6
20260902115511 24 208 12.9 16.1 0.00 0.00 0.00 86 1015.5
20260902115012 24 215 14.5 16.1 0.00 0.00 0.00 86 1015.5
20260902114012 24 213 14.5 16.1 0.00 0.00 0.00 86 1015.5
20260902113511 25 210 16.1 17.7 0.00 0.00 0.00 86 1015.7
20260902113012 24 214 17.7 19.3 0.00 0.00 0.00 86 1015.6
20260902111512 24 230 14.5 17.7 0.00 0.00 0.00 85 1015.7
20260902111011 24 233 14.5 17.7 0.00 0.00 0.00 85 1015.6
20260902110511 25 218 12.9 17.7 0.00 0.00 0.00 85 1015.6
20260902110011 24 215 11.3 16.1 0.00 0.00 0.00 85 1015.6
20260902105511 24 226 11.3 14.5 0.00 0.00 0.00 85 1015.5
20260902104511 25 225 9.7 11.3 0.00 0.00 0.00 85 1015.4
20260902104011 24 234 9.7 12.9 0.00 0.00 0.00 85 1015.3
20260902103011 25 229 12.9 14.5 0.00 0.00 0.00 85 1015.2
20260902102511 25 236 12.9 16.1 0.00 0.00 0.00 85 1015.3
20260902102012 25 228 12.9 16.1 0.00 0.00 0.00 85 1015.4
20260902101511 25 249 11.3 12.9 0.00 0.00 0.00 84 1015.3
20260902100511 25 285 12.9 12.9 0.00 0.00 0.00 84 1015.4
20260902100010 25 258 11.3 12.9 0.00 0.00 0.00 84 1015.2
20260902095511 25 263 11.3 12.9 0.00 0.00 0.00 84 1015.5
20260902094011 25 214 11.3 12.9 0.00 0.00 0.00 84 1015.5
20260902093511 25 238 9.7 12.9 0.00 0.00 0.00 84 1015.3
20260902093011 25 249 8.0 11.3 0.00 0.00 0.00 83 1015.2
20260902092511 25 229 8.0 11.3 0.00 0.00 0.00 83 1015.4
20260902092011 25 226 9.7 12.9 0.00 0.00 0.00 83 1015.2
20260902091511 25 217 12.9 16.1 0.00 0.00 0.00 83 1015.3
20260902091011 25 208 14.5 16.1 0.00 0.00 0.00 82 1015.3
20260902090510 25 200 14.5 16.1 0.00 0.00 0.00 82 1015.2
20260902085511 25 181 16.1 17.7 0.00 0.00 0.00 81 1015.1
20260902085011 25 181 14.5 16.1 0.00 0.00 0.00 81 1015.2
20260902084511 25 181 12.9 12.9 0.00 0.00 0.00 81 1015.0
20260902084011 24 183 9.7 12.9 0.00 0.00 0.00 81 1015.0
20260902083511 24 188 6.4 9.7 0.00 0.00 0.00 80 1015.2
20260902083011 24 197 4.8 6.4 0.00 0.00 0.00 80 1015.3
20260902082511 24 194 6.4 8.0 0.00 0.00 0.00 80 1015.2
20260902082011 24 184 6.4 8.0 0.00 0.00 0.00 81 1015.3
20260902081511 24 181 4.8 8.0 0.00 0.00 0.00 81 1015.1
20260902081011 24 181 1.6 6.4 0.00 0.00 0.00 81 1015.2
20260902080011 24 181 1.6 4.8 0.00 0.00 0.00 81 1015.3
20260902075511 24 181 3.2 4.8 0.00 0.00 0.00 82 1015.4
20260902075010 24 181 3.2 4.8 0.00 0.00 0.00 82 1015.4
20260902074511 24 181 3.2 4.8 0.00 0.00 0.00 82 1015.3
20260902074011 24 181 4.8 6.4 0.00 0.00 0.00 83 1015.3
20260902073511 24 181 6.4 8.0 0.00 0.00 0.00 83 1015.3
20260902073011 24 181 8.0 8.0 0.00 0.00 0.00 83 1015.2
20260902072512 24 181 8.0 8.0 0.00 0.00 0.00 83 1015.2
20260902072011 24 181 8.0 8.0 0.00 0.00 0.00 83 1015.2
20260902071511 24 181 6.4 8.0 0.00 0.00 0.00 83 1015.3
20260902070510 24 181 6.4 8.0 0.00 0.00 0.00 82 1015.3
20260902070011 24 181 8.0 8.0 0.00 0.00 0.00 82 1015.1
20260902065011 24 181 8.0 8.0 0.00 0.00 0.00 81 1015.2
20260902064511 24 181 8.0 8.0 0.00 0.00 0.00 81 1015.2
20260902064010 24 181 6.4 6.4 0.00 0.00 0.00 81 1015.2
20260902063011 24 181 4.8 6.4 0.00 0.00 0.00 81 1015.4
20260902062511 24 181 1.6 6.4 0.00 0.00 0.00 80 1015.5
20260902062011 24 0 0.0 0.0 0.00 0.00 0.00 80 1015.5
20260902061010 24 0 0.0 0.0 0.00 0.00 0.00 79 1015.7